Wind_Speed
8 8 8 8 8 8 8 7 7 7 8 8 8 8 7 7 7 7 7 7 7 6 6 6 6 7 8 7 7 6 6 8 8 9 10 10 10 9 10 10 10 10 10
9 9 9 9 9 9 8 8 8 8 8 9 9 8 8 8 8 8 8 8 7 7 7 7 7 8 9 8 8 7 7 8 9 9 9 9 10 10 10 10 9 10 10
9 9 9 9 9 10 10 9 9 9 10 10 9 9 9 8 8 8 8 7 7 7 8 8 8 8 9 10 9 9 9 9 9 10 9 9 9 10 10 10 10 10 11
10 10 9 9 9 9 9 10 10 10 10 10 9 9 9 9 9 8 8 8 8 8 8 8 9 9 10 11 10 10 10 9 10 10 10 10 10 10 10 10 11 11 12
11 10 9 9 10 10 10 10 10 10 10 10 10 10 9 9 9 9 9 9 8 8 8 9 9 10 10 11 11 11 11 10 10 10 11 11 10 10 10 11 11 11 12
12 11 10 10 10 10 11 11 11 11 10 10 10 10 10 10 9 9 9 9 9 8 8 9 9 10 11 11 11 12 12 11 11 12 12 11 10 10 10 10 10 10 11
12 12 11 11 11 11 12 12 12 11 11 11 10 11 11 10 10 9 9 9 9 9 9 9 9 10 10 10 11 12 12 11 11 12 12 11 11 11 11 11 11 11 12
13 12 12 12 12 12 12 13 13 12 12 12 11 11 11 10 10 10 10 10 10 10 10 10 10 10 10 10 11 11 11 11 12 12 12 12 11 11 11 11 11 12 12
13 14 13 13 13 13 13 13 13 13 13 12 11 10 11 11 11 10 10 11 11 11 11 11 10 10 10 10 10 11 12 11 11 11 11 12 12 12 12 11 12 12 12
14 14 14 14 14 13 13 13 13 14 13 12 11 11 11 11 12 12 12 12 12 12 12 12 12 11 11 10 10 11 11 12 11 11 11 12 12 13 13 12 12 12 13
14 14 14 14 14 14 14 14 13 14 13 12 11 11 11 12 12 12 12 12 12 12 12 12 13 12 12 11 11 11 11 11 11 11 12 12 13 13 13 13 13 13 13
14 14 15 15 15 15 14 13 12 13 12 12 12 12 12 12 12 12 12 12 12 12 12 13 12 12 12 12 12 12 12 12 12 12 12 13 13 14 14 14 14 14 14
15 15 15 15 15 15 14 13 12 12 13 13 13 13 13 13 13 12 12 12 12 13 13 13 12 13 13 13 13 13 13 13 13 13 13 13 14 14 14 14 14 15 15
15 14 15 14 14 13 13 13 13 13 13 13 14 14 14 14 14 13 12 12 13 13 13 13 13 13 13 13 14 14 14 14 14 14 14 14 14 14 14 15 15 15 15
14 14 14 14 14 13 13 14 14 14 14 14 14 14 15 15 14 13 13 14 14 14 14 14 14 14 14 14 14 14 14 14 14 14 15 15 14 14 14 15 16 15 15
14 14 13 14 14 14 14 14 15 15 15 15 15 14 14 14 14 14 14 14 14 14 14 14 15 14 14 15 14 14 15 15 15 15 15 15 16 16 16 15 15 16 16
15 14 15 15 16 16 15 15 15 15 16 15 15 15 15 15 14 14 14 14 15 14 14 14 14 14 14 14 14 14 15 15 15 16 16 16 16 16 15 15 15 15 16
17 17 17 17 17 17 17 16 16 16 16 16 16 16 16 16 16 15 15 15 16 15 15 15 15 15 15 14 14 15 15 16 16 16 16 16 16 16 16 16 16 16 17
18 18 18 18 18 18 18 17 16 16 17 17 17 17 16 16 16 16 16 16 16 16 16 16 16 15 15 15 15 15 15 16 16 16 16 16 16 17 17 17 17 18 18
20 19 19 19 19 19 19 18 18 18 17 18 18 18 18 17 16 16 16 17 17 17 17 17 16 16 16 17 16 16 16 16 17 17 16 16 16 17 17 17 18 19 19
21 21 20 19 20 20 19 19 20 19 19 19 19 19 19 18 17 17 17 17 17 17 17 17 17 17 18 18 17 17 17 18 17 18 17 17 17 17 18 18 19 20 21
20 20 21 21 20 21 21 21 21 21 21 20 21 20 20 20 19 18 18 18 17 17 17 17 18 18 18 18 17 18 18 18 18 18 18 18 19 19 20 20 21 22 23
21 20 21 21 21 22 22 22 23 23 23 22 22 22 21 21 20 20 19 19 18 18 18 18 19 18 18 19 19 19 19 19 20 20 19 19 20 21 22 22 23 23 23
22 22 21 22 22 22 23 23 24 24 24 24 24 23 22 22 21 21 20 20 19 19 19 19 19 19 20 20 20 20 20 20 20 20 20 20 21 21 23 23 23 24 24
23 23 23 23 23 24 24 24 24 24 24 25 25 24 23 23 23 23 22 21 21 21 21 20 20 20 21 21 21 21 21 21 21 21 21 22 22 22 23 23 24 24 24
24 25 24 24 25 25 25 25 25 25 25 25 25 25 25 24 24 24 24 23 22 22 22 21 21 22 22 22 22 22 22 21 21 21 22 22 23 23 23 23 24 25 25
Wind_Direction
269 270 268 267 265 268 267 265 265 264 268 271 273 276 276 278 281 281 283 280 274 272 272 272 273 275 275 274 279 283 272 263 263 261 260 259 261 263 263 259 260 260 262
268 268 266 266 268 266 265 263 261 260 266 268 269 274 279 279 280 279 275 272 271 270 269 271 273 274 272 273 273 271 271 265 262 261 259 260 261 262 262 264 262 261 260
267 267 267 263 264 264 261 258 260 263 262 264 269 272 277 279 279 279 273 270 268 267 266 269 270 271 272 273 268 266 268 268 268 265 261 261 261 263 263 262 263 264 263
266 266 266 263 262 264 261 258 261 264 264 265 269 272 276 276 275 277 272 267 264 267 267 269 269 270 271 272 271 270 269 270 268 265 263 263 263 261 262 266 267 269 266
265 266 264 264 260 262 261 260 263 262 265 267 269 270 273 270 274 273 270 269 263 267 269 272 274 274 273 273 274 273 269 270 270 267 265 267 264 261 265 268 271 272 269
262 264 262 261 264 263 259 260 262 261 263 266 266 267 271 269 272 272 269 268 267 267 268 274 279 275 273 275 275 273 271 270 271 270 269 270 264 264 267 268 271 273 272
261 259 260 260 261 264 260 259 259 261 260 262 263 262 264 267 269 270 265 263 266 266 269 276 281 281 281 280 277 274 273 273 274 272 271 270 265 263 266 269 269 270 272
259 259 259 258 257 260 262 259 257 259 259 261 260 258 262 265 267 268 265 264 269 273 273 276 279 282 283 281 280 278 276 277 275 272 270 270 268 266 266 269 273 272 272
258 256 257 257 257 261 262 259 256 256 257 258 260 262 264 267 264 265 266 266 269 271 273 276 276 279 281 281 282 278 279 279 279 274 272 271 269 271 270 270 273 275 276
260 257 255 256 255 258 259 258 258 256 255 256 258 259 262 264 265 264 268 269 272 270 271 272 274 277 279 282 283 280 280 278 277 278 274 271 271 273 274 271 272 275 278
260 257 255 251 252 254 255 258 257 254 250 252 257 260 260 261 263 263 265 271 275 274 270 271 272 276 277 280 283 282 282 280 278 276 275 274 272 273 275 272 271 275 276
262 260 257 252 251 252 253 253 253 250 250 254 256 257 259 260 259 261 264 270 274 277 275 273 273 276 279 282 281 281 282 279 280 278 278 277 276 275 275 274 272 274 276
264 262 259 256 254 255 252 250 249 248 250 252 253 256 259 260 260 261 263 267 273 277 279 277 276 278 280 282 283 282 281 280 279 277 278 280 278 277 275 274 275 275 276
264 261 257 256 254 254 252 250 248 249 249 250 255 259 261 262 261 258 262 267 272 276 280 281 279 278 279 282 283 280 280 278 277 276 277 279 276 276 276 274 274 275 278
266 264 257 251 250 252 252 250 251 250 251 254 258 260 262 261 259 259 264 267 271 275 278 282 281 278 279 283 285 280 280 279 277 277 278 278 276 277 277 276 274 274 276
265 262 258 252 251 252 254 252 251 250 253 256 260 261 262 261 261 263 266 269 271 274 278 280 281 278 278 280 282 281 278 278 279 279 280 278 277 277 279 277 275 274 275
263 260 259 258 254 252 253 252 252 252 252 255 258 258 258 259 260 262 265 268 269 272 275 278 282 282 281 281 282 279 275 277 280 281 282 278 279 279 279 279 281 278 276
265 262 260 259 257 254 253 252 253 256 255 255 257 257 259 260 258 261 265 268 269 269 272 276 279 282 279 281 284 281 279 279 280 282 283 279 279 278 278 278 280 280 279
265 262 259 258 257 255 253 251 253 257 257 256 256 258 260 259 258 261 264 266 268 269 270 273 278 279 280 281 283 283 282 281 281 282 282 279 279 279 277 277 278 281 282
262 260 259 259 257 255 255 255 254 256 256 256 257 257 257 260 261 263 264 266 268 269 270 271 275 278 279 280 283 282 280 280 280 281 281 279 278 277 278 278 279 281 283
259 257 257 259 257 255 257 256 255 255 255 256 257 258 257 259 262 264 266 268 269 270 270 272 274 277 279 279 280 280 279 278 279 280 280 278 277 277 279 281 281 282 282
258 257 257 258 257 255 256 258 256 255 256 256 256 257 258 259 262 265 266 269 271 271 273 274 274 278 279 280 279 280 279 278 279 279 279 279 279 279 280 281 283 283 283
259 258 259 260 258 257 256 257 257 256 256 255 256 256 257 259 260 262 264 266 269 270 272 275 275 277 278 280 281 281 281 281 281 279 279 281 281 282 282 282 282 282 283
259 259 258 260 260 260 260 259 259 257 255 254 253 255 257 258 260 261 263 265 267 268 270 273 273 274 276 280 283 283 283 283 283 282 282 282 283 284 284 284 284 284 284
259 259 259 260 259 259 260 261 259 257 255 254 253 253 255 257 259 260 262 263 265 268 268 270 272 274 277 280 282 282 283 283 283 283 284 284 283 283 282 283 284 284 284
261 260 261 261 259 259 261 262 260 257 254 254 253 253 255 256 259 259 261 262 263 265 267 269 272 276 278 280 282 283 283 283 283 284 285 285 284 282 283 284 285 285 285
Height
5866 5866 5866 5867 5867 5868 5868 5869 5870 5870 5871 5871 5872 5872 5872 5872 5872 5872 5872 5872 5872 5872 5872 5872 5872 5872 5872 5871 5871 5871 5871 5872 5872 5873 5874 5875 5876 5877 5877 5877 5877 5877 5877
5864 5864 5865 5865 5866 5866 5866 5867 5868 5869 5869 5870 5870 5870 5870 5870 5870 5870 5870 5870 5870 5870 5870 5870 5870 5870 5870 5870 5870 5870 5870 5871 5871 5872 5872 5873 5874 5874 5875 5875 5875 5875 5875
5862 5862 5862 5863 5864 5864 5865 5865 5866 5867 5867 5868 5868 5868 5868 5868 5868 5868 5868 5868 5868 5868 5869 5869 5869 5869 5868 5868 5868 5868 5869 5869 5869 5870 5870 5871 5871 5872 5872 5872 5873 5873 5873
5860 5860 5860 5861 5862 5862 5863 5864 5864 5865 5865 5866 5866 5866 5866 5866 5866 5866 5866 5866 5866 5866 5867 5867 5867 5867 5867 5867 5867 5867 5867 5867 5867 5868 5868 5869 5869 5869 5870 5870 5870 5870 5870
5858 5858 5858 5859 5859 5860 5861 5861 5862 5862 5863 5863 5864 5864 5864 5864 5864 5864 5864 5864 5864 5864 5864 5864 5865 5865 5865 5865 5865 5864 5864 5864 5865 5865 5866 5866 5866 5867 5867 5867 5868 5868 5868
5855 5855 5856 5857 5857 5858 5858 5859 5859 5860 5861 5861 5861 5862 5862 5862 5862 5862 5862 5862 5862 5862 5862 5862 5862 5862 5862 5862 5862 5862 5862 5862 5862 5863 5863 5863 5864 5864 5864 5865 5865 5865 5865
5852 5853 5853 5854 5855 5855 5856 5856 5857 5857 5858 5858 5859 5859 5859 5860 5860 5860 5860 5860 5860 5860 5860 5860 5860 5860 5860 5860 5860 5860 5860 5859 5859 5860 5860 5860 5861 5861 5862 5862 5862 5862 5862
5849 5849 5850 5851 5852 5852 5853 5853 5854 5855 5855 5856 5856 5856 5857 5858 5858 5858 5858 5858 5858 5858 5858 5858 5858 5858 5858 5857 5857 5857 5857 5857 5857 5857 5857 5857 5858 5858 5859 5859 5859 5859 5859
5845 5846 5847 5847 5848 5849 5849 5850 5851 5852 5852 5853 5853 5854 5855 5855 5855 5855 5855 5855 5855 5855 5856 5856 5856 5855 5855 5855 5854 5854 5854 5854 5854 5854 5854 5854 5855 5855 5856 5856 5856 5856 5856
5841 5842 5843 5844 5845 5845 5846 5847 5847 5848 5849 5850 5851 5851 5852 5852 5853 5853 5853 5853 5853 5853 5853 5853 5853 5853 5852 5852 5852 5852 5852 5851 5851 5851 5851 5851 5852 5852 5852 5852 5852 5853 5852
5838 5838 5839 5840 5841 5842 5843 5843 5844 5845 5846 5847 5848 5848 5849 5849 5850 5850 5850 5850 5850 5850 5850 5850 5850 5850 5850 5849 5849 5849 5849 5848 5848 5848 5848 5848 5848 5849 5849 5849 5849 5849 5848
5834 5835 5836 5836 5837 5838 5839 5840 5841 5842 5843 5844 5845 5846 5846 5846 5847 5847 5847 5847 5847 5847 5847 5847 5847 5847 5846 5846 5846 5845 5845 5845 5845 5845 5845 5845 5845 5845 5845 5845 5845 5845 5845
5831 5831 5832 5833 5834 5834 5835 5836 5837 5838 5840 5841 5842 5842 5843 5843 5844 5844 5844 5844 5844 5844 5844 5844 5843 5843 5843 5842 5842 5842 5841 5841 5841 5841 5841 5841 5841 5841 5841 5841 5841 5841 5841
5827 5828 5828 5829 5830 5831 5832 5833 5834 5835 5836 5837 5838 5839 5839 5840 5840 5841 5841 5841 5841 5841 5841 5840 5840 5840 5839 5839 5838 5838 5838 5838 5838 5838 5837 5837 5837 5837 5837 5837 5837 5837 5836
5824 5825 5825 5826 5827 5828 5829 5830 5831 5832 5833 5834 5835 5835 5836 5836 5836 5837 5837 5838 5838 5837 5837 5837 5836 5836 5836 5835 5834 5834 5834 5834 5834 5834 5834 5833 5833 5833 5833 5833 5833 5832 5832
5820 5821 5822 5822 5823 5824 5825 5826 5827 5829 5830 5830 5831 5832 5832 5833 5833 5833 5834 5834 5834 5834 5834 5833 5833 5832 5832 5832 5831 5831 5830 5830 5830 5830 5830 5829 5829 5829 5829 5829 5828 5828 5828
5817 5817 5818 5819 5819 5820 5822 5823 5824 5825 5826 5826 5827 5828 5828 5829 5829 5830 5830 5830 5830 5830 5830 5830 5829 5828 5828 5828 5827 5827 5826 5826 5826 5825 5825 5825 5825 5824 5824 5824 5824 5823 5823
5812 5813 5814 5814 5815 5816 5817 5819 5820 5821 5822 5823 5823 5824 5824 5825 5825 5826 5826 5826 5826 5826 5826 5826 5825 5825 5824 5824 5823 5823 5822 5822 5821 5821 5820 5820 5820 5820 5820 5819 5819 5819 5818
5807 5808 5809 5810 5811 5812 5813 5814 5815 5816 5818 5819 5819 5820 5820 5821 5821 5821 5822 5822 5822 5822 5822 5822 5821 5821 5820 5820 5819 5819 5818 5817 5817 5817 5816 5816 5815 5815 5815 5815 5814 5814 5813
5801 5802 5803 5805 5806 5807 5808 5810 5811 5812 5813 5814 5815 5815 5816 5816 5817 5817 5817 5817 5817 5817 5817 5817 5817 5816 5816 5815 5815 5815 5814 5813 5813 5812 5812 5811 5811 5810 5810 5809 5809 5808 5808
5795 5796 5798 5799 5801 5802 5804 5805 5806 5807 5808 5809 5810 5811 5811 5812 5812 5813 5813 5813 5813 5813 5813 5813 5812 5812 5811 5811 5810 5810 5809 5809 5808 5808 5807 5807 5806 5805 5805 5804 5804 5803 5802
5789 5790 5792 5793 5795 5797 5798 5799 5800 5801 5802 5803 5804 5805 5806 5807 5808 5808 5808 5808 5809 5808 5808 5808 5808 5807 5807 5806 5806 5805 5805 5804 5804 5803 5802 5802 5800 5800 5800 5799 5798 5797 5796
5783 5784 5785 5787 5789 5791 5792 5793 5794 5795 5796 5797 5798 5799 5801 5802 5802 5803 5803 5803 5804 5803 5804 5803 5803 5803 5802 5802 5801 5800 5799 5799 5798 5797 5797 5796 5795 5794 5793 5792 5791 5790 5789
5777 5778 5779 5780 5782 5784 5785 5786 5787 5788 5789 5791 5792 5794 5795 5795 5796 5797 5798 5798 5798 5798 5798 5798 5798 5798 5797 5796 5796 5795 5794 5794 5793 5792 5791 5790 5789 5788 5787 5786 5785 5783 5782
5770 5771 5773 5774 5775 5777 5778 5779 5780 5781 5783 5784 5786 5787 5788 5789 5790 5791 5792 5792 5793 5793 5793 5793 5793 5792 5792 5791 5790 5790 5789 5788 5787 5786 5785 5784 5783 5782 5781 5779 5778 5776 5775
5763 5764 5765 5767 5768 5769 5771 5772 5773 5774 5776 5777 5779 5781 5782 5783 5784 5784 5785 5786 5786 5787 5787 5787 5787 5787 5786 5785 5784 5783 5783 5782 5781 5780 5779 5777 5776 5775 5774 5773 5771 5769 5767